Weather History for KOSH - February, 2013

Change the Weather History Date:

Wednesday, February 13, 2013

  Actual Average Record
Temperature  
Mean Temperature 27 °F -  
Max Temperature 35 °F 28 °F 48 °F (1990)
Min Temperature 19 °F 9 °F -9 °F (1971)
Degree Days  
Heating Degree Days 38    
Moisture  
Dew Point 24 °F    
Average Humidity 81    
Maximum Humidity 89    
Minimum Humidity 70    
Precipitation  
Precipitation 0.00 in - - ()
Sea Level Pressure  
Sea Level Pressure 29.74 in    
Wind  
Wind Speed 6 mph (SSW)    
Max Wind Speed 13 mph    
Max Gust Speed -    
Visibility 7 miles    
Events Snow    
Averages and records for this station are not official NWS values.
T = Trace of Precipitation, MM = Missing Value Source: NWS Daily Summary

Daily Weather History Graph

Daily Weather History Graph

Search for Another Location

Airport or City:

Trip Planner

Search our weather history database for the weather conditions in past years. The results will help you decide how hot, cold, wet, or windy it might be!

Date:

Astronomy

Feb. 13, 2013 Rise Set
Actual Time 6:55 AM CST 5:21 PM CST
Civil Twilight 6:26 AM CST 5:51 PM CST
Nautical Twilight 5:52 AM CST 6:25 PM CST
Astronomical Twilight 5:18 AM CST 6:58 PM CST
Moon 8:15 AM CST (2/13) 9:35 PM CST (2/13)
Length of Visible Light 11h 25m
Length of Day
10h 25m
Waxing Crescent, 14% of the Moon is Illuminated
Feb 13
Waxing Crescent
Feb 17
First Quarter
Feb 25
Full
Mar 4
Last Quarter
Mar 11
New

Hourly Weather History & Observations

Time (CST) Temp. Windchill Dew Point Humidity Pressure Visibility Wind Dir Wind Speed Gust Speed Precip Events Conditions
12:53 AM 23.0 °F 13.9 °F 18.0 °F 81% 29.85 in 8.0 mi SSW 8.1 mph - N/A   Clear
1:53 AM 21.9 °F 13.4 °F 18.0 °F 85% 29.85 in 7.0 mi SSW 6.9 mph - N/A   Clear
2:53 AM 23.0 °F 13.9 °F 18.0 °F 81% 29.82 in 7.0 mi SSW 8.1 mph - N/A   Clear
3:53 AM 21.9 °F 14.5 °F 18.0 °F 85% 29.82 in 6.0 mi SSW 5.8 mph - N/A   Clear
4:53 AM 19.9 °F 13.4 °F 17.1 °F 89% 29.80 in 5.0 mi SSW 4.6 mph - N/A   Clear
5:53 AM 19.9 °F 12.1 °F 17.1 °F 89% 29.78 in 5.0 mi SSW 5.8 mph - N/A   Clear
6:53 AM 21.0 °F - 18.0 °F 88% 29.79 in 5.0 mi Calm Calm - N/A   Clear
7:53 AM 23.0 °F - 19.9 °F 88% 29.78 in 4.0 mi Calm Calm - N/A   Overcast
8:53 AM 26.1 °F 21.9 °F 21.9 °F 84% 29.76 in 5.0 mi Variable 3.5 mph - N/A   Overcast
9:53 AM 28.0 °F 20.8 °F 23.0 °F 81% 29.75 in 6.0 mi SSW 6.9 mph - N/A   Haze
10:53 AM 30.0 °F 25.2 °F 23.0 °F 75% 29.75 in 7.0 mi SW 4.6 mph - N/A   Overcast
11:53 AM 30.9 °F 26.2 °F 24.1 °F 76% 29.74 in 8.0 mi Variable 4.6 mph - N/A   Overcast
12:53 PM 32.0 °F 24.8 °F 25.0 °F 75% 29.72 in 8.0 mi SSW 8.1 mph - N/A   Overcast
1:53 PM 33.1 °F 23.9 °F 26.1 °F 75% 29.71 in 7.0 mi South 12.7 mph - N/A   Overcast
2:53 PM 34.0 °F 28.8 °F 26.1 °F 73% 29.72 in 7.0 mi Variable 5.8 mph - N/A   Overcast
3:53 PM 35.1 °F 29.3 °F 26.1 °F 70% 29.71 in 8.0 mi SSW 6.9 mph - N/A   Overcast
4:53 PM 34.0 °F 27.2 °F 26.1 °F 73% 29.72 in 8.0 mi SSW 8.1 mph - N/A   Overcast
5:53 PM 33.1 °F 26.9 °F 27.0 °F 78% 29.72 in 8.0 mi SSW 6.9 mph - N/A   Overcast
6:53 PM 32.0 °F 26.4 °F 26.1 °F 79% 29.73 in 7.0 mi SSW 5.8 mph - N/A   Overcast
7:53 PM 32.0 °F 27.5 °F 27.0 °F 82% 29.72 in 8.0 mi SSW 4.6 mph - N/A   Overcast
8:53 PM 32.0 °F 24.8 °F 27.0 °F 82% 29.71 in 8.0 mi SSW 8.1 mph - N/A   Overcast
9:53 PM 33.1 °F 25.5 °F 27.0 °F 78% 29.71 in 8.0 mi SSW 9.2 mph - N/A   Overcast
10:22 PM 33.8 °F 28.6 °F 28.4 °F 81% 29.66 in 3.0 mi SSW 5.8 mph - 0.00 in Snow Light Snow
10:30 PM 32.0 °F 25.6 °F 28.4 °F 87% 29.66 in 5.0 mi South 6.9 mph - 0.00 in Snow Light Snow
10:53 PM 32.0 °F 25.6 °F 28.0 °F 85% 29.69 in 7.0 mi South 6.9 mph - 0.00 in   Overcast
11:53 PM 32.0 °F 26.4 °F 27.0 °F 82% 29.68 in 8.0 mi SSE 5.8 mph - N/A   Overcast